ACA8873 KEWR-CYYZ

Flight info

Callsign ACA8873
Flight time N/A
Altitude 38000
Route GAYEL Q818 WOZEE LINNG3
Aircraft A321/M-SDE3FGHIRWY/LB1

Departure

Time 2026-04-30 15:07
Airport Newark Liberty International Airport (KEWR)

Arrival

Time N/A
Airport Toronto Pearson International Airport (CYYZ)
Time Latitude Longitude Altitude Speed Heading
2026-04-30 14:52 40.68303 -74.18317 14 ft 0 kts
2026-04-30 14:58 40.68283 -74.18320 14 ft 2 kts
2026-04-30 14:59 40.68250 -74.18330 14 ft 2 kts 52°
2026-04-30 15:00 40.68246 -74.18358 14 ft 0 kts 97°
2026-04-30 15:01 40.68245 -74.18356 14 ft 0 kts 97°
2026-04-30 15:01 40.68240 -74.18199 14 ft 17 kts 86°
2026-04-30 15:02 40.68238 -74.18011 14 ft 17 kts 100°
2026-04-30 15:02 40.68182 -74.17843 14 ft 17 kts 117°
2026-04-30 15:03 40.68352 -74.17595 14 ft 13 kts 26°
2026-04-30 15:03 40.68629 -74.17419 14 ft 24 kts 26°
2026-04-30 15:04 40.68950 -74.17218 14 ft 22 kts 25°
2026-04-30 15:04 40.69461 -74.16891 14 ft 23 kts 25°
2026-04-30 15:05 40.69890 -74.16596 14 ft 10 kts 64°
2026-04-30 15:06 40.69641 -74.16609 14 ft 77 kts 206°
2026-04-30 15:06 40.67461 -74.18013 577 ft 180 kts 205°
2026-04-30 15:07 40.64650 -74.19023 2540 ft 186 kts 200°
2026-04-30 15:07 40.63508 -74.22375 3822 ft 210 kts 301°
2026-04-30 15:08 40.66986 -74.23910 5406 ft 249 kts 355°
2026-04-30 15:08 40.73602 -74.24623 8241 ft 282 kts 351°
2026-04-30 15:09 40.78170 -74.25320 10125 ft 295 kts 349°
2026-04-30 15:09 40.82952 -74.26110 11488 ft 321 kts 348°
2026-04-30 15:10 40.87838 -74.26916 13163 ft 331 kts 347°
2026-04-30 15:11 40.98270 -74.28651 16401 ft 350 kts 346°
2026-04-30 15:11 41.03568 -74.29536 17863 ft 359 kts 346°
2026-04-30 15:12 41.11870 -74.30921 20090 ft 369 kts 346°
2026-04-30 15:13 41.17691 -74.31894 21551 ft 374 kts 346°
2026-04-30 15:14 41.29474 -74.33880 24046 ft 390 kts 346°
2026-04-30 15:14 41.38308 -74.35523 25625 ft 393 kts 336°
2026-04-30 15:16 41.46732 -74.49648 27957 ft 374 kts 294°
2026-04-30 15:17 41.52412 -74.62831 29670 ft 384 kts 295°
2026-04-30 15:18 41.60167 -74.80872 31609 ft 395 kts 294°
2026-04-30 15:19 41.64690 -74.91441 32609 ft 399 kts 294°